Milledgeville, GA

7:26 AM EST on November 13, 2019 (GMT -0500)
Baldwin County

Weather History for KMLJ - September, 2019

Change the Weather History Date:

Wednesday, September 11, 2019

  Actual Average (WUND) Record (WUND)
Temperature  
Mean Temperature 82 °F -  
Max Temperature 95 °F - - (-1)
Min Temperature 69 °F - - (-1)
Cooling Degree Days 17    
Growing Degree Days 32 (Base 50)    
Moisture  
Dew Point 70 °F    
Average Humidity 75    
Maximum Humidity 100    
Minimum Humidity 34    
Precipitation  
Precipitation 0.00 in - - ()
Sea Level Pressure  
Sea Level Pressure 30.21 in    
Wind  
Wind Speed 0 mph (East)    
Max Wind Speed 5 mph    
Max Gust Speed -    
Visibility 7 miles    
Events      
Averages and records for this station are not official NWS values.
T = Trace of Precipitation, MM = Missing Value Source: NWS Daily Summary

Daily Weather History Graph

Daily Weather History Graph

Search for Another Location

Airport or City:

Astronomy

Sep. 11, 2019 Rise Set
Actual Time 7:13 AM EDT 7:44 PM EDT
Civil Twilight 6:48 AM EDT 8:09 PM EDT
Nautical Twilight 6:19 AM EDT 8:39 PM EDT
Astronomical Twilight 5:49 AM EDT 9:08 PM EDT
Moon 6:47 PM EDT (9/11) 4:46 AM EDT (9/11)
Length of Visible Light 13h 21m
Length of Day
12h 31m
Waxing Gibbous, 94% of the Moon is Illuminated
Sep 11
Waxing Gibbous
Sep 14
Full
Sep 21
Last Quarter
Sep 28
New
Oct 5
First Quarter

Hourly Weather History & Observations

Time (EDT) Temp. Heat Index Dew Point Humidity Pressure Visibility Wind Dir Wind Speed Gust Speed Precip Events Conditions
12:15 AM 73.4 °F - 71.6 °F 94% 30.24 in 4.0 mi Calm Calm - N/A   Clear
12:55 AM 73.4 °F - 71.6 °F 94% 30.24 in 4.0 mi Calm Calm - N/A   Clear
1:15 AM 73.4 °F - 73.4 °F 100% 30.24 in 4.0 mi Calm Calm - N/A   Clear
1:35 AM 71.6 °F - 71.6 °F 100% 30.24 in 3.0 mi Calm Calm - N/A   Clear
1:55 AM 71.6 °F - 71.6 °F 100% 30.24 in 3.0 mi Calm Calm - N/A   Clear
2:15 AM 71.6 °F - 71.6 °F 100% 30.24 in 2.0 mi Calm Calm - N/A   Clear
2:35 AM 71.6 °F - 71.6 °F 100% 30.24 in 1.8 mi Calm Calm - N/A   Mist
2:55 AM 71.6 °F - 71.6 °F 100% 30.23 in 3.0 mi Calm Calm - N/A   Clear
3:15 AM 71.6 °F - 71.6 °F 100% 30.23 in 2.0 mi Calm Calm - N/A   Clear
3:35 AM 71.6 °F - 71.6 °F 100% 30.22 in 1.8 mi Calm Calm - N/A   Mist
3:55 AM 71.6 °F - 71.6 °F 100% 30.22 in 3.0 mi Calm Calm - N/A   Clear
4:15 AM 71.6 °F - 71.6 °F 100% 30.22 in 2.5 mi Calm Calm - N/A   Clear
4:35 AM 71.6 °F - 71.6 °F 100% 30.23 in 2.0 mi Calm Calm - N/A   Clear
4:55 AM 71.6 °F - 71.6 °F 100% 30.23 in 1.8 mi Calm Calm - N/A   Mist
5:15 AM 71.6 °F - 71.6 °F 100% 30.23 in 2.0 mi Calm Calm - N/A   Clear
5:35 AM 71.6 °F - 71.6 °F 100% 30.23 in 1.5 mi Calm Calm - N/A   Mist
5:55 AM 71.6 °F - 71.6 °F 100% 30.23 in 2.0 mi Calm Calm - N/A   Clear
6:15 AM 71.6 °F - 71.6 °F 100% 30.24 in 5.0 mi Calm Calm - N/A   Clear
6:35 AM 69.8 °F - 69.8 °F 100% 30.25 in 3.0 mi Calm Calm - N/A   Clear
6:55 AM 71.6 °F - 71.6 °F 100% 30.26 in 1.8 mi Calm Calm - N/A   Mist
7:15 AM 69.8 °F - 69.8 °F 100% 30.27 in 4.0 mi Calm Calm - N/A   Clear
7:35 AM 69.8 °F - 69.8 °F 100% 30.28 in 4.0 mi Calm Calm - N/A   Clear
7:55 AM 69.8 °F - 69.8 °F 100% 30.28 in 2.5 mi Calm Calm - N/A   Clear
8:15 AM 71.6 °F - 71.6 °F 100% 30.28 in 3.0 mi Calm Calm - N/A   Clear
8:35 AM 71.6 °F - 71.6 °F 100% 30.29 in 5.0 mi Calm Calm - N/A   Clear
8:55 AM 73.4 °F - 71.6 °F 94% 30.29 in 7.0 mi Calm Calm - N/A   Clear
9:35 AM 77.0 °F - 71.6 °F 83% 30.29 in 7.0 mi Calm Calm - N/A   Clear
9:55 AM 78.8 °F - 71.6 °F 78% 30.29 in 10.0 mi Calm Calm - N/A   Clear
10:15 AM 78.8 °F - 73.4 °F 83% 30.29 in 7.0 mi Calm Calm - N/A   Clear
10:35 AM 80.6 °F 85.4 °F 73.4 °F 79% 30.29 in 7.0 mi Calm Calm - N/A   Clear
10:55 AM 82.4 °F 88.2 °F 73.4 °F 74% 30.29 in 10.0 mi Calm Calm - N/A   Clear
11:15 AM 82.4 °F 87.2 °F 71.6 °F 70% 30.29 in 10.0 mi East 4.6 mph - N/A   Clear
11:35 AM 84.2 °F 88.4 °F 69.8 °F 62% 30.28 in 10.0 mi Calm Calm - N/A   Clear
11:55 AM 86.0 °F 90.4 °F 69.8 °F 58% 30.28 in 10.0 mi SSE 3.5 mph - N/A   Clear
12:15 PM 87.8 °F 92.6 °F 69.8 °F 55% 30.27 in 7.0 mi Calm Calm - N/A   Clear
12:35 PM 87.8 °F 92.6 °F 69.8 °F 55% 30.26 in 7.0 mi East 3.5 mph - N/A   Clear
12:55 PM 87.8 °F 92.6 °F 69.8 °F 55% 30.25 in 7.0 mi Calm Calm - N/A   Clear
1:15 PM 89.6 °F 94.7 °F 69.8 °F 52% 30.24 in 10.0 mi ESE 4.6 mph - N/A   Clear
1:35 PM 89.6 °F 94.7 °F 69.8 °F 52% 30.24 in 10.0 mi Calm Calm - N/A   Clear
1:55 PM 95.0 °F 101.3 °F 69.8 °F 44% 30.23 in 10.0 mi Calm Calm - N/A   Clear
2:15 PM - - - N/A% - - North - - N/A   Unknown
2:30 PM - - - N/A% - - North - - N/A   Unknown
2:55 PM 95.0 °F 98.5 °F 66.2 °F 39% 30.19 in 10.0 mi Calm Calm - N/A   Unknown
3:15 PM 93.2 °F 96.2 °F 66.2 °F 41% 30.19 in 10.0 mi ESE 3.5 mph - N/A   Clear
3:35 PM 95.0 °F 97.0 °F 64.4 °F 36% 30.17 in 10.0 mi ENE 3.5 mph - N/A   Clear
3:55 PM 95.0 °F 97.0 °F 64.4 °F 36% 30.17 in 10.0 mi ENE 4.6 mph - N/A   Clear
4:15 PM 95.0 °F 96.0 °F 62.6 °F 34% 30.16 in 10.0 mi ESE 3.5 mph - N/A   Clear
4:35 PM 95.0 °F 97.0 °F 64.4 °F 36% 30.16 in 10.0 mi Calm Calm - N/A   Clear
4:55 PM 95.0 °F 97.0 °F 64.4 °F 36% 30.15 in 10.0 mi East 4.6 mph - N/A   Clear
5:15 PM 95.0 °F 96.0 °F 62.6 °F 34% 30.15 in 10.0 mi Calm Calm - N/A   Clear
5:30 PM 95.0 °F 97.0 °F 64.4 °F 36% 30.14 in 10.0 mi Calm Calm - N/A   Clear
5:55 PM 93.2 °F 94.1 °F 62.6 °F 36% 30.14 in 10.0 mi East 3.5 mph - N/A   Clear
6:15 PM 93.2 °F 94.9 °F 64.4 °F 38% 30.13 in 10.0 mi Calm Calm - N/A   Clear
6:35 PM 89.6 °F 92.2 °F 66.2 °F 46% 30.13 in 10.0 mi Calm Calm - N/A   Clear
6:55 PM 87.8 °F 91.4 °F 68.0 °F 52% 30.13 in 10.0 mi Calm Calm - N/A   Clear
7:15 PM 86.0 °F 90.4 °F 69.8 °F 58% 30.12 in 10.0 mi Calm Calm - N/A   Clear
7:55 PM 82.4 °F 86.3 °F 69.8 °F 66% 30.12 in 10.0 mi Calm Calm - N/A   Clear
8:15 PM 82.4 °F 86.3 °F 69.8 °F 66% 30.13 in 10.0 mi Calm Calm - N/A   Clear
8:35 PM 80.6 °F 84.6 °F 71.6 °F 74% 30.13 in 10.0 mi Calm Calm - N/A   Clear
8:55 PM 78.8 °F - 69.8 °F 74% 30.13 in 10.0 mi Calm Calm - N/A   Clear
9:15 PM 78.8 °F - 71.6 °F 78% 30.14 in 10.0 mi Calm Calm - N/A   Clear
9:35 PM 78.8 °F - 69.8 °F 74% 30.14 in 10.0 mi Calm Calm - N/A   Clear
9:55 PM 77.0 °F - 69.8 °F 78% 30.14 in 10.0 mi Calm Calm - N/A   Clear
10:15 PM 77.0 °F - 69.8 °F 78% 30.15 in 10.0 mi Calm Calm - N/A   Clear
10:35 PM 77.0 °F - 69.8 °F 78% 30.15 in 10.0 mi Calm Calm - N/A   Clear
10:55 PM 77.0 °F - 69.8 °F 78% 30.15 in 10.0 mi Calm Calm - N/A   Clear
11:15 PM 75.2 °F - 69.8 °F 83% 30.15 in 10.0 mi Calm Calm - N/A   Clear
11:35 PM 75.2 °F - 71.6 °F 89% 30.15 in 10.0 mi Calm Calm - N/A   Clear
11:55 PM 73.4 °F - 69.8 °F 88% 30.15 in 10.0 mi Calm Calm - N/A   Clear